If you wish to contribute or participate in the discussions about articles you are invited to join SKYbrary as a registered user

 Actions

Anvik Airport

From SKYbrary Wiki

PANV
Airport
ICAO: PANV – IATA: ANV
Summary
Name Anvik Airport
Region North America
Territory Alaska US.gif
Location , Alaska
Serving Anvik
Elevation 88.697 m
291 ft
291 ft88.697 m
Type medium airport
Coordinates 62° 38' 48.12" N, 160° 11' 27.60" W
Runways
Designator Length Width Surface ROPS
17/35 902 m2,959.318 ft
23 m75.459 ft
GVL /


METAR
Observation PANV 210756Z AUTO 33005KT 10SM OVC075 M04/M08 A2965 RMK AO2 SLP064 T10391083 FZRANO
Station Anvik, Anvik Airport
Date/Time 21 April 2019 07:56:00
Wind direction 330°
Wind speed 05 kts
Lowest cloud amount overcast
Temperature
Dew point
Humidity 71%
QNH hPa
Weather condition n/a